Find Rassvet-3 No. 5

NORAD ID: 68364 Int'l Des: 2026-061 Owner: B1440 Country: RU Constellation: Rassvet operational
LEOCIRCULARPOLAR

Live-Position

3D-Globus wird geladen...

Über Rassvet-3 No. 5

Beschreibung wird geladen...

Nächste Überflüge

Passes for default location (London). Set your location on the main map for personalized predictions.

Höhenverlauf

Loading altitude history...

Zweizeiliger Elementsatz

1 68364U 26061E 26133.18313476 .00023619 00000-0 22328-3 0 9991
2 68364 82.2960 51.9479 0000790 322.0084 38.1119 15.66839526 7995
Epoch: 13. Mai 2026 • Age: 15 hours

Aktueller Status

Höhe 387.3 km
Geschwindigkeit 7.68 km/s
Subsatellitenpunkt -51.13°S, 122.46°W
Startdatum 23. März 2026
Alter 0.1 years
Typ other

Technische Details

Klassifizierung Payload
Masse 370.00 kg
Trockenmasse 370.00 kg
Gesamtmasse 370.00 kg
Länge 4.00 m
Durchmesser 1.00 m
Spannweite 10.00 m
Form Box+1 pan
Hersteller B1440
Bus-Typ Rassvet-2
Phasenstatus In Orbit
Besitzer/Staat B1440/RU

Most Searched